Location: Marcé
(47.5801°N, 0.3280°W)
Time: 16:08:03
(UTC+01:00)

SR - Pass Details

Date: 05 December 2021
Orbit: 582 x 872 km, 66.7° (Epoch: 22 January)

Event Time Altitude Azimuth Distance (km) Brightness Sun altitude
Rises 01:28:19 0° 242° (WSW) 2,942 - -63.7°
Reaches altitude 10° 01:30:52 10° 253° (WSW) 1,996 - -63.6°
Maximum altitude 01:34:49 30° 315° (NW) 1,086 - -63.4°
Drops below altitude 10° 01:38:39 10° 18° (NNE) 1,924 - -63.1°
Sets 01:41:04 0° 29° (NNE) 2,817 - -62.9°
